Location: Asheville, NC
(35.6000°N, 82.5500°W)
Time: 04:41:35

SEEDS - Pass Details

Date: 08 January 2018
Orbit: 588 x 605 km, 97.5° (Epoch: 22 March)

Event Time Altitude Azimuth Distance (km) Brightness Sun altitude
Rises 18:11:52 0° 135° (SE) 2,844 ? -7.9°
Reaches altitude 10° 18:14:25 10° 120° (ESE) 1,945 ? -8.3°
Maximum altitude 18:17:38 22° 70° (ENE) 1,343 ? -8.9°
Drops below altitude 10° 18:20:53 10° 20° (NNE) 1,951 ? -9.6°
Sets 18:23:26 0° 5° (N) 2,856 ? -10.0°
